Regional Weather Roundup
Issued by NWS

Home | Current Version | Previous Version | Text Only | Print | Product List | Glossary On
Versions: 1 2 3 4 5 6 7 8 9 10 11 12 13 14 15 16 17 18 19 20 21 22 23 24 25 26 27 28 29 30 31 32 33 34 35 36 37 38 39 40 41 42 43 44 45 46 47 48 49 50
000
ASUS43 KOAX 231202
RWRNE

WEATHER ROUNDUP FOR NEBRASKA
NATIONAL WEATHER SERVICE OMAHA NE
700 AM CDT WED JUL 23 2014

NOTES: SATELLITE DATA IS BEING USED TO AUGMENT CLOUD COVER ABOVE
       12000 FEET.
       "FAIR" INDICATES FEW OR NO CLOUDS BELOW 12,000 FEET WITH NO
       SIGNIFICANT WEATHER AND/OR OBSTRUCTIONS TO VISIBILITY.

  * THESE STATIONS DO NOT REPORT WEATHER SUCH AS RAIN...SNOW OR FOG.

NEZ001>004-019>022-054>056-231300-
NEBRASKA PANHANDLE

CITY           SKY/WX    TMP DP  RH WIND       PRES   REMARKS
SCOTTSBLUFF    CLOUDY    68  61  78 E17       30.35S
6HR MIN TEMP:  66; 6HR MAX TEMP:  75;

ALLIANCE       MOCLDY    66  58  75 E13       30.34F
6HR MIN TEMP:  63; 6HR MAX TEMP:  72;

CHADRON        CLEAR     67  56  67 S9        30.26F
6HR MIN TEMP:  66; 6HR MAX TEMP:  71; 6HR PCP:  0.01;

KIMBALL        CLOUDY    67  64  92 SE13      30.34R
SIDNEY         CLOUDY    68  64  87 SE13      30.32F
6HR MIN TEMP:  67; 6HR MAX TEMP:  73;

$$

NEZ057>060-069>072-079>082-231300-
SOUTHWEST NEBRASKA

CITY           SKY/WX    TMP DP  RH WIND       PRES   REMARKS
NORTH PLATTE   PTCLDY    65  63  93 E8        30.29R
6HR MIN TEMP:  65; 6HR MAX TEMP:  69;

IMPERIAL       CLOUDY    68  65  90 SE14      30.28S
6HR MIN TEMP:  68; 6HR MAX TEMP:  73;

LEXINGTON      PTCLDY    67  66  94 E7        30.27F
MCCOOK         PTCLDY    67  63  87 E7        30.27R
6HR MIN TEMP:  67; 6HR MAX TEMP:  74;

OGALLALA       CLOUDY    64  62  91 E5        30.28F
$$

NEZ005>010-023>029-035>040-094-231300-
NORTH CENTRAL NEBRASKA

CITY           SKY/WX    TMP DP  RH WIND       PRES   REMARKS
VALENTINE      CLOUDY    69  63  81 S10       30.22F
6HR MIN TEMP:  68; 6HR MAX TEMP:  73;

AINSWORTH      CLOUDY    64  61  90 S8        30.30F
BROKEN BOW     MOCLDY    64  61  90 N8        30.31R
6HR MIN TEMP:  63; 6HR MAX TEMP:  68;

O`NEILL        MOCLDY    61  56  85 SW3       30.33R
ORD            PTCLDY    60  58  92 N6        30.31R
6HR MIN TEMP:  59; 6HR MAX TEMP:  66;

THEDFORD       CLOUDY    66  63  89 E6        30.33F
$$

NEZ041-046>049-061>064-073>077-083>087-231300-
SOUTH CENTRAL NEBRASKA

CITY           SKY/WX    TMP DP  RH WIND       PRES   REMARKS
GRAND ISLAND   CLEAR     63  60  90 N3        30.29S
6HR MIN TEMP:  62; 6HR MAX TEMP:  69;

AURORA         PTCLDY    63  62  98 CALM      30.29R
HASTINGS       MOCLDY    68  60  75 E6        30.27F
6HR MIN TEMP:  65; 6HR MAX TEMP:  71;

HEBRON         MOCLDY    71  64  79 W13G18    30.29R THUNDER
HOLDREGE       CLOUDY    67  64  89 E9        30.27F THUNDER
KEARNEY *      MOCLDY    68  63  83 SE8       30.29R
YORK           CLEAR     61  61 100 NW6       30.28R
$$

NEZ011>018-030>034-042>045-231300-
NORTHEAST NEBRASKA

CITY           SKY/WX    TMP DP  RH WIND       PRES   REMARKS
NORFOLK        CLEAR     63  57  81 CALM      30.27R
6HR MIN TEMP:  58; 6HR MAX TEMP:  70;

ALBION         PTCLDY    58  56  92 N3        30.31R
BLAIR          CLEAR     62  53  71 NW5       30.24R
COLUMBUS *     CLEAR     59  54  82 N5        30.27S
FREMONT        CLEAR     61  58  90 NW3       30.26S
TEKAMAH        CLEAR     62  58  86 N7        30.24R
6HR MIN TEMP:  60; 6HR MAX TEMP:  67;

WAYNE          CLEAR     57  55  94 CALM      30.27S
$$

NEZ050>053-065>068-078-088>093-231300-
SOUTHEAST NEBRASKA

CITY           SKY/WX    TMP DP  RH WIND       PRES   REMARKS
LINCOLN        CLEAR     66  59  78 N7        30.24S
6HR MIN TEMP:  64; 6HR MAX TEMP:  73;

OMAHA EPPLEY   PTCLDY    64  58  80 N6        30.23R
6HR MIN TEMP:  63; 6HR MAX TEMP:  71;

BEATRICE       CLEAR     62  60  92 NE3       30.22F
FALLS CITY     CLEAR     67  62  84 NW6       30.19R
6HR MIN TEMP:  67; 6HR MAX TEMP:  75;

NEBRASKA CITY  CLEAR     64  59  83 NE6       30.21S
PLATTSMOUTH    CLEAR     64  58  79 N3        30.22S
$$

NEZ044-045-051>053-067-231300-
OMAHA AREA

CITY           SKY/WX    TMP DP  RH WIND       PRES   REMARKS
OMAHA EPPLEY   PTCLDY    64  58  80 N6        30.23R
6HR MIN TEMP:  63; 6HR MAX TEMP:  71;

BLAIR          CLEAR     62  53  71 NW5       30.24R
FREMONT        CLEAR     61  58  90 NW3       30.26S
MILLARD        CLEAR     67  58  73 CALM      30.23R
OFFUTT AFB     CLEAR     67  59  76 N6        30.22R
PLATTSMOUTH    CLEAR     64  58  79 N3        30.22S
WAHOO          FAIR      63  58  86 N5        30.24S
$$


USA.gov is the U.S. government's official web portal to all federal, state and local government web resources and services.